Back to catalog

STARLINK-30523

AliveCommunicationsVLEO
NORAD 57997·PAYLOAD·🇺🇸 United States

Launched Oct 5, 2023 from Cape Canaveral Space Force Station

Loading…

Next Passes (next 24 hours)

TLE

FreshSource: CelesTrak SupGP

Epoch: Sep 14, 2026, 21:06 UTC

1 57997C 23153G   26257.87965278  .00039854  00000+0  14437-2 0  2571
2 57997  43.0032  78.6303 0002086 272.5859 327.7984 15.27553237    13

Track STARLINK-30523 in real time with AllMySat

Download on the App Store